Weather History for KTEB - March, 2014

Change the Weather History Date:

Sunday, March 2, 2014

  Actual Average Record
Temperature  
Mean Temperature 37 °F -  
Max Temperature 41 °F 43 °F 70 °F (2004)
Min Temperature 33 °F 28 °F 11 °F (1980)
Degree Days  
Heating Degree Days 28    
Moisture  
Dew Point 19 °F    
Average Humidity 50    
Maximum Humidity 61    
Minimum Humidity 44    
Precipitation  
Precipitation 0.00 in - - ()
Snow  
Snow 0.00 in - - ()
Snow Depth 3.00 in    
Sea Level Pressure  
Sea Level Pressure 30.05 in    
Wind  
Wind Speed 4 mph (NW)    
Max Wind Speed 10 mph    
Max Gust Speed -    
Visibility 10 miles    
Events      
Averages and records for this station are not official NWS values.
T = Trace of Precipitation, MM = Missing Value Source: NWS Daily Summary

Daily Weather History Graph

Daily Weather History Graph

Search for Another Location

Airport or City:

Trip Planner

Search our weather history database for the weather conditions in past years. The results will help you decide how hot, cold, wet, or windy it might be!

Date:

Astronomy

Mar. 02, 2014 Rise Set
Actual Time 6:28 AM EST 5:48 PM EST
Civil Twilight 6:01 AM EST 6:16 PM EST
Nautical Twilight 5:29 AM EST 6:47 PM EST
Astronomical Twilight 4:57 AM EST 7:19 PM EST
Moon 6:57 AM EST (3/2) 7:42 PM EST (3/2)
Length of Visible Light 12h 14m
Length of Day
11h 19m
Waxing Crescent, 3% of the Moon is Illuminated
Mar 2
Waxing Crescent
Mar 8
First Quarter
Mar 16
Full
Mar 23
Last Quarter
Mar 30
New

Hourly Weather History & Observations

Time (EST) Temp. Windchill Dew Point Humidity Pressure Visibility Wind Dir Wind Speed Gust Speed Precip Events Conditions
12:51 AM 34.0 °F 31.0 °F 18.0 °F 52% 30.13 in 10.0 mi SW 3.5 mph - N/A   Scattered Clouds
1:51 AM 33.1 °F 27.7 °F 19.0 °F 56% 30.12 in 10.0 mi SSW 5.8 mph - N/A   Mostly Cloudy
2:51 AM 33.1 °F 30.0 °F 18.0 °F 54% 30.09 in 10.0 mi South 3.5 mph - N/A   Mostly Cloudy
3:51 AM 34.0 °F 28.8 °F 18.0 °F 52% 30.08 in 10.0 mi South 5.8 mph - N/A   Overcast
4:51 AM 34.0 °F 29.8 °F 19.0 °F 54% 30.08 in 10.0 mi South 4.6 mph - N/A   Overcast
5:51 AM 35.1 °F 31.0 °F 19.0 °F 52% 30.06 in 10.0 mi South 4.6 mph - N/A   Overcast
6:51 AM 35.1 °F - 23.0 °F 61% 30.08 in 10.0 mi Calm Calm - N/A   Overcast
7:51 AM 37.0 °F - 19.0 °F 48% 30.09 in 10.0 mi Calm Calm - N/A   Overcast
8:51 AM 37.0 °F - 19.0 °F 48% 30.07 in 10.0 mi Calm Calm - N/A   Overcast
9:51 AM 37.0 °F - 19.9 °F 50% 30.09 in 10.0 mi Calm Calm - 0.00 in   Light Drizzle
10:51 AM 37.9 °F - 21.0 °F 51% 30.07 in 10.0 mi Calm Calm - 0.00 in   Overcast
11:51 AM 39.0 °F 34.8 °F 21.0 °F 49% 30.06 in 10.0 mi NW 5.8 mph - N/A   Overcast
12:51 PM 39.9 °F 36.7 °F 21.9 °F 49% 30.01 in 10.0 mi NNW 4.6 mph - N/A   Mostly Cloudy
1:51 PM 41.0 °F 38.0 °F 21.9 °F 47% 29.99 in 10.0 mi North 4.6 mph - N/A   Overcast
2:51 PM 41.0 °F 39.0 °F 23.0 °F 49% 29.99 in 7.0 mi North 3.5 mph - N/A   Overcast
3:51 PM 39.0 °F 34.0 °F 21.9 °F 50% 30.00 in 10.0 mi NNW 6.9 mph - N/A   Overcast
4:51 PM 39.0 °F 34.8 °F 19.9 °F 46% 30.01 in 10.0 mi North 5.8 mph - N/A   Overcast
5:51 PM 39.0 °F 34.8 °F 19.9 °F 46% 30.02 in 10.0 mi NW 5.8 mph - N/A   Overcast
6:51 PM 37.9 °F 31.5 °F 18.0 °F 45% 30.02 in 10.0 mi NNW 9.2 mph - N/A   Overcast
7:51 PM 37.0 °F 31.6 °F 17.1 °F 44% 30.01 in 10.0 mi NNW 6.9 mph - N/A   Overcast
8:51 PM 36.0 °F 31.1 °F 18.0 °F 48% 30.02 in 10.0 mi NW 5.8 mph - N/A   Overcast
9:51 PM 35.1 °F 30.1 °F 16.0 °F 46% 30.02 in 10.0 mi NNW 5.8 mph - N/A   Overcast
10:51 PM 34.0 °F 26.0 °F 16.0 °F 48% 30.02 in 10.0 mi NW 10.4 mph - N/A   Overcast
11:51 PM 33.1 °F 25.5 °F 16.0 °F 50% 30.02 in 10.0 mi NNW 9.2 mph - N/A   Overcast